FW4691 Ermoupoli GR current weather conditions

sailwx.info

Wind from 151 at 2 knots gusting 7

Air temperature 14.4° C
Dewpoint 11.8° C

Last reported at 2019-Dec-14 12:06 UTC.
Time now 2019-Dec-14 12:40 UTC

Location: N 37°26' E 024°56'.
View on Google Maps.

See reports from other nearby stations

  
Tides and Currents Weather Stations Pressure Air Temp Water Temp Dewpoint Dewpoint Depression Visibility Wind Speed Wind Dir Waves Ship Positions
date/time (UTC)wind fromknots sea level pressurealtimeterstation pressurevisibilityair tempwater tempwave heightnotes
2019-Dec-14 12:06 151 2 gusting 7 14.4
2019-Dec-14 12:01 139 5 gusting 15 14.4
2019-Dec-14 12:00 161 5 gusting 7 13.9
2019-Dec-14 11:45 126 3 gusting 15 13.9
2019-Dec-14 11:30 200 3 gusting 9 13.9
2019-Dec-14 11:06 326 1 gusting 6 13.9
2019-Dec-14 11:01 200 3 gusting 17 13.9
2019-Dec-14 10:06 293 2 gusting 6 13.9
2019-Dec-14 10:01 299 1 gusting 15 13.9
2019-Dec-14 10:00 260 1 gusting 14 13.9
2019-Dec-14 09:45 018 4 gusting 13 15.6
2019-Dec-14 09:01 159 6 gusting 19 16.7
2019-Dec-14 08:15 159 6 gusting 15 16.1
2019-Dec-14 08:06 169 6 gusting 11 16.1
2019-Dec-14 08:01 152 6 gusting 17 16.1
2019-Dec-14 08:00 103 6 gusting 14 16.1
2019-Dec-14 07:45 134 4 gusting 13 16.1
2019-Dec-14 07:15 153 4 gusting 10 15.6
2019-Dec-14 07:06 185 3 gusting 7 15.6
2019-Dec-14 07:01 207 2 gusting 17 15.6
2019-Dec-14 06:30 260 2 gusting 13 15.0
2019-Dec-14 06:06 155 6 gusting 17 16.7
2019-Dec-14 06:01 152 4 gusting 17 16.7
2019-Dec-14 05:45 160 6 gusting 17 16.1
2019-Dec-14 05:06 162 2 gusting 11 16.1
2019-Dec-14 05:01 232 4 gusting 17 16.7
2019-Dec-14 04:45 041 4 gusting 14 16.1
2019-Dec-14 04:30 119 3 gusting 12 16.1
2019-Dec-14 04:06 173 4 gusting 11 16.1
2019-Dec-14 04:01 239 4 gusting 13 16.1
2019-Dec-14 03:45 267 0 gusting 6 15.6
2019-Dec-14 03:15 310 3 gusting 12 15.6
2019-Dec-14 03:06 187 1 gusting 5 15.6
2019-Dec-14 03:01 191 1 gusting 11 16.1
2019-Dec-14 02:45 324 2 gusting 9 15.6
2019-Dec-14 02:30 196 1 gusting 8 15.6
2019-Dec-14 02:15 237 2 gusting 7 15.6
2019-Dec-14 02:06 201 4 gusting 15 15.6
2019-Dec-14 02:01 212 2 gusting 12 15.6
2019-Dec-14 02:00 115 1 gusting 9 15.6
2019-Dec-14 01:45 302 2 gusting 10 15.6
2019-Dec-14 01:30 244 3 gusting 12 15.6
2019-Dec-14 01:15 301 2 gusting 10 15.6
2019-Dec-14 01:06 215 3 gusting 11 15.6
2019-Dec-14 01:01 201 1 gusting 11 15.6
2019-Dec-14 01:00 355 1 gusting 9 15.6
2019-Dec-14 00:30 209 2 gusting 8 15.6
2019-Dec-14 00:06 316 4 gusting 11 15.6
2019-Dec-14 00:01 308 3 gusting 10 15.6
2019-Dec-14 00:00 302 3 gusting 7 15.0
2019-Dec-13 23:30 290 1 gusting 6 15.0
2019-Dec-13 23:15 293 1 gusting 6 15.0
2019-Dec-13 22:06 287 1 gusting 2 15.0
2019-Dec-13 22:01 275 1 gusting 7 15.0
2019-Dec-13 21:45 274 14.4
2019-Dec-13 21:30 274 14.4
2019-Dec-13 21:06 282 15.6
2019-Dec-13 21:01 290 0 gusting 7 15.6
2019-Dec-13 21:00 301 15.0
2019-Dec-13 20:45 286 0 gusting 4 15.0
2019-Dec-13 20:06 268 15.0
2019-Dec-13 20:01 285 0 gusting 2 15.0
2019-Dec-13 20:00 289 15.0
2019-Dec-13 19:15 292 15.0
2019-Dec-13 19:06 297 0 gusting 2 15.0
2019-Dec-13 19:01 291 15.6
2019-Dec-13 18:46 271 14.4
2019-Dec-13 18:06 308 0 gusting 2 15.6
2019-Dec-13 18:01 306 2 gusting 7 15.6
2019-Dec-13 17:45 288 1 gusting 4 15.0
2019-Dec-13 17:30 317 15.0
2019-Dec-13 17:06 291 2 gusting 6 15.6
2019-Dec-13 17:01 288 1 gusting 6 15.6
2019-Dec-13 17:00 300 0 gusting 3 15.0
2019-Dec-13 16:06 239 1 gusting 5 15.6
2019-Dec-13 16:01 282 2 gusting 8 15.6
2019-Dec-13 16:00 277 2 gusting 6 15.0
2019-Dec-13 15:45 304 0 gusting 6 15.0
2019-Dec-13 15:06 283 4 gusting 8 16.1
2019-Dec-13 15:01 276 2 gusting 10 16.1
2019-Dec-13 14:06 276 1 gusting 4 16.1
2019-Dec-13 14:01 300 3 gusting 10 16.1
2019-Dec-13 13:45 264 4 gusting 9 16.1
2019-Dec-13 13:06 281 4 gusting 10 16.1
2019-Dec-13 13:01 275 3 gusting 13 16.7
2019-Dec-13 12:45 288 2 gusting 9 16.1
2019-Dec-13 12:30 296 3 gusting 10 16.1
2019-Dec-13 12:06 289 4 gusting 7 16.7
2019-Dec-13 12:01 281 6 gusting 13 16.7
2019-Dec-13 12:00 336 6 gusting 11 16.7
2019-Dec-13 11:15 259 5 gusting 10 16.7
2019-Dec-13 11:06 290 4 gusting 10 16.7
2019-Dec-13 11:01 308 6 gusting 12 16.7
2019-Dec-13 10:06 289 2 gusting 6 16.7
2019-Dec-13 10:01 276 2 gusting 8 16.7
2019-Dec-13 09:45 312 4 gusting 6 16.7
2019-Dec-13 09:06 271 1 gusting 6 16.7
2019-Dec-13 09:01 264 2 gusting 10 16.1
2019-Dec-13 08:06 301 14.4
2019-Dec-13 08:01 301 14.4
2019-Dec-13 06:06 288 12.2
2019-Dec-13 06:01 288 12.2
2019-Dec-13 05:06 288 1 gusting 2 11.7
2019-Dec-13 05:01 287 0 gusting 5 11.7
2019-Dec-13 04:06 294 0 gusting 2 12.2
2019-Dec-13 04:01 293 1 gusting 6 12.2
2019-Dec-13 03:06 290 11.7
2019-Dec-13 03:01 290 11.7
2019-Dec-13 02:06 290 0 gusting 1 11.1
2019-Dec-13 02:01 290 11.1
2019-Dec-13 01:06 280 0 gusting 2 12.2
2019-Dec-13 01:01 280 12.2
2019-Dec-13 00:06 272 0 gusting 2 12.2
2019-Dec-13 00:01 293 1 gusting 2 12.2
2019-Dec-12 23:06 292 11.7
2019-Dec-12 23:01 292 11.7
2019-Dec-12 22:06 292 0 gusting 1 11.7
2019-Dec-12 22:01 292 11.1
2019-Dec-12 21:06 292 11.1
2019-Dec-12 21:01 292 11.1
2019-Dec-12 20:06 292 11.1
2019-Dec-12 20:01 292 11.1
2019-Dec-12 19:06 292 12.2
2019-Dec-12 19:01 292 12.2
2019-Dec-12 18:06 238 12.2
2019-Dec-12 18:01 293 1 gusting 6 12.2
2019-Dec-12 17:06 298 0 gusting 2 12.2
2019-Dec-12 17:01 298 12.2
2019-Dec-12 16:06 299 12.2
2019-Dec-12 16:01 299 12.2
2019-Dec-12 15:06 299 12.8
2019-Dec-12 15:01 299 12.8
2019-Dec-12 14:06 308 0 gusting 2 12.2
2019-Dec-12 14:01 340 0 gusting 2 12.2
2019-Dec-12 13:06 234 0 gusting 2 12.8
2019-Dec-12 13:01 212 1 gusting 8 12.8
2019-Dec-12 12:06 318 2 gusting 7 13.3
2019-Dec-12 12:01 315 3 gusting 14 13.3